Simultaneous Nadir Overpasses (SNOs) Predictions

Prediction of SNOs between TERRA and METOP-C Satellite Orbit:

Table of predicted SNOs for the next 14.0 days since TLE Epoch: 3/16/2024
Index Date (TERRA) Time (TERRA) Lat,Lon (TERRA) SZA (TERRA ) Date (METOP-C) Time (METOP-C) Lat,Lon (METOP-C) SZA (METOP-C ) Distance(km) Time Diff (sec)
1 03/17/2024 13:11:35 -79.42, 179.13 99.26 03/17/2024 13:11:00 -79.42, 179.14 99.27 0.29 35
2 03/17/2024 14:00:50 79.65, -11.70 81.02 03/17/2024 14:01:33 79.64, -11.75 81.02 1.37 43
3 03/20/2024 04:32:06 79.49, 129.41 79.80 03/20/2024 04:31:54 79.50, 129.52 79.81 2.47 12
4 03/20/2024 05:21:23 -79.69, -61.59 99.96 03/20/2024 05:22:30 -79.70, -61.49 99.93 2.26 67
5 03/22/2024 19:03:21 79.31, -89.58 78.55 03/22/2024 19:02:15 79.32, -89.49 78.55 2.18 66
6 03/22/2024 19:52:37 -79.55, 79.63 101.16 03/22/2024 19:52:50 -79.55, 79.72 101.15 2.08 13
7 03/25/2024 10:23:54 -79.31,-139.76 102.49 03/25/2024 10:23:14 -79.30,-139.86 102.51 2.18 40
8 03/25/2024 11:13:08 79.58, 29.66 77.85 03/25/2024 11:13:45 79.59, 29.76 77.87 2.27 37
9 03/28/2024 01:44:23 79.40, 170.65 76.61 03/28/2024 01:44:07 79.40, 170.66 76.61 0.29 16



Historial Predications of SNOs between TERRA and METOP-C
